Terminal Aerodrome Forecast
Issued by NWS

Home | Current Version | Previous Version | Text Only | Print | Product List | Glossary Off
Versions: 1 2 3 4 5 6 7 8 9 10 11 12 13 14 15 16 17 18 19 20 21 22 23 24 25 26 27 28 29 30 31 32 33 34

000
FTUS43 KABR 271100
TAFMBG
TAF
KMBG 271137Z 2712/2812 07006KT P6SM SKC
      TEMPO 2712/2715 2SM BR BKN006
     FM271500 12008KT P6SM BKN020 OVC150
     FM280300 14006KT P6SM FEW035 BKN150 OVC250=

USA.gov is the U.S. government's official web portal to all federal, state and local government web resources and services.